Time,TemperatureF,DewpointF,PressureIn,WindDirection,WindDirectionDegrees,WindSpeedMPH,WindSpeedGustMPH,Humidity,HourlyPrecipIn,Conditions,Clouds,dailyrainin,SoftwareType,DateUTC
2013-01-07 00:14:00,31.0,28.0,30.28,West,278,0.0,6.0,87,0.00,,,0.00,weatherlink.com 1.10,2013-01-07 05:14:00,
2013-01-07 00:29:00,31.0,28.0,30.28,WSW,239,2.0,5.0,87,0.00,,,0.00,weatherlink.com 1.10,2013-01-07 05:29:00,
2013-01-07 00:44:00,30.9,28.0,30.28,West,280,3.0,7.0,87,0.00,,,0.00,weatherlink.com 1.10,2013-01-07 05:44:00,
2013-01-07 00:59:00,31.0,28.0,30.29,SSW,212,0.0,4.0,88,0.00,,,0.00,weatherlink.com 1.10,2013-01-07 05:59:00,
2013-01-07 01:14:00,31.0,28.0,30.30,West,264,0.0,5.0,88,0.00,,,0.00,weatherlink.com 1.10,2013-01-07 06:14:00,
2013-01-07 01:29:00,30.9,28.0,30.30,WSW,248,1.0,4.0,88,0.00,,,0.00,weatherlink.com 1.10,2013-01-07 06:29:00,
2013-01-07 01:44:00,30.9,28.0,30.31,WSW,243,0.0,3.0,88,0.00,,,0.00,weatherlink.com 1.10,2013-01-07 06:44:00,
2013-01-07 01:59:00,30.9,28.0,30.32,SW,232,1.0,5.0,88,0.00,,,0.00,weatherlink.com 1.10,2013-01-07 06:59:00,
2013-01-07 02:14:00,30.9,28.0,30.32,SW,219,0.0,2.0,88,0.00,,,0.00,weatherlink.com 1.10,2013-01-07 07:14:00,
2013-01-07 02:29:00,30.9,28.0,30.33,WSW,244,0.0,4.0,88,0.00,,,0.00,weatherlink.com 1.10,2013-01-07 07:29:00,
2013-01-07 02:45:00,31.0,28.0,30.33,West,268,2.0,4.0,88,0.00,,,0.00,weatherlink.com 1.10,2013-01-07 07:45:00,
2013-01-07 03:00:00,31.0,28.0,30.33,SSW,207,0.0,3.0,88,0.00,,,0.00,weatherlink.com 1.10,2013-01-07 08:00:00,
2013-01-07 03:15:00,31.0,28.0,30.34,SSW,211,1.0,2.0,88,0.00,,,0.00,weatherlink.com 1.10,2013-01-07 08:15:00,
2013-01-07 03:30:00,31.1,28.0,30.35,WSW,251,1.0,3.0,88,0.00,,,0.00,weatherlink.com 1.10,2013-01-07 08:30:00,
2013-01-07 03:45:00,31.2,28.0,30.35,WSW,239,0.0,3.0,88,0.00,,,0.00,weatherlink.com 1.10,2013-01-07 08:45:00,
2013-01-07 04:00:00,31.2,28.0,30.35,West,276,0.0,3.0,88,0.00,,,0.00,weatherlink.com 1.10,2013-01-07 09:00:00,
2013-01-07 04:15:00,31.2,28.0,30.35,West,276,0.0,1.0,88,0.00,,,0.00,weatherlink.com 1.10,2013-01-07 09:15:00,
2013-01-07 04:30:00,31.2,28.0,30.35,WSW,251,1.0,3.0,88,0.00,,,0.00,weatherlink.com 1.10,2013-01-07 09:30:00,
2013-01-07 04:45:00,31.2,28.0,30.36,WSW,245,0.0,1.0,88,0.00,,,0.00,weatherlink.com 1.10,2013-01-07 09:45:00,
2013-01-07 05:00:00,31.3,28.0,30.35,WSW,245,0.0,1.0,88,0.00,,,0.00,weatherlink.com 1.10,2013-01-07 10:00:00,
2013-01-07 05:15:00,31.3,28.0,30.36,WSW,258,0.0,2.0,88,0.00,,,0.00,weatherlink.com 1.10,2013-01-07 10:15:00,
2013-01-07 05:30:00,31.2,28.0,30.36,SW,222,0.0,3.0,88,0.00,,,0.00,weatherlink.com 1.10,2013-01-07 10:30:00,
2013-01-07 05:45:00,31.1,28.0,30.37,WSW,245,1.0,2.0,88,0.00,,,0.00,weatherlink.com 1.10,2013-01-07 10:45:00,
2013-01-07 06:00:00,31.0,28.0,30.38,WSW,253,0.0,3.0,88,0.00,,,0.00,weatherlink.com 1.10,2013-01-07 11:00:00,
2013-01-07 06:15:00,30.8,28.0,30.38,SW,222,0.0,4.0,88,0.00,,,0.00,weatherlink.com 1.10,2013-01-07 11:15:00,
2013-01-07 06:30:00,30.7,28.0,30.39,SW,235,0.0,2.0,88,0.00,,,0.00,weatherlink.com 1.10,2013-01-07 11:30:00,
2013-01-07 06:45:00,30.6,28.0,30.39,WSW,241,1.0,2.0,88,0.00,,,0.00,weatherlink.com 1.10,2013-01-07 11:45:00,
2013-01-07 07:00:00,30.6,28.0,30.40,WSW,241,0.0,3.0,88,0.00,,,0.00,weatherlink.com 1.10,2013-01-07 12:00:00,
2013-01-07 07:15:00,30.6,28.0,30.41,SW,226,0.0,3.0,88,0.00,,,0.00,weatherlink.com 1.10,2013-01-07 12:15:00,
2013-01-07 07:30:00,30.6,28.0,30.42,SW,233,0.0,3.0,88,0.00,,,0.00,weatherlink.com 1.10,2013-01-07 12:30:00,
2013-01-07 07:45:00,30.7,28.0,30.41,SSW,197,0.0,2.0,89,0.00,,,0.00,weatherlink.com 1.10,2013-01-07 12:45:00,
2013-01-07 08:00:00,30.7,28.0,30.42,West,260,0.0,4.0,88,0.00,,,0.00,weatherlink.com 1.10,2013-01-07 13:00:00,
2013-01-07 08:15:00,30.7,28.0,30.43,SW,231,0.0,2.0,88,0.00,,,0.00,weatherlink.com 1.10,2013-01-07 13:15:00,
2013-01-07 08:30:00,30.8,28.0,30.43,SSE,164,1.0,2.0,88,0.00,,,0.00,weatherlink.com 1.10,2013-01-07 13:30:00,
2013-01-07 08:45:00,31.0,28.0,30.44,SW,235,2.0,3.0,88,0.00,,,0.00,weatherlink.com 1.10,2013-01-07 13:45:00,
2013-01-07 09:00:00,31.1,28.0,30.44,WSW,255,0.0,4.0,87,0.00,,,0.00,weatherlink.com 1.10,2013-01-07 14:00:00,
2013-01-07 09:15:00,31.4,28.0,30.45,WSW,258,0.0,2.0,87,0.00,,,0.00,weatherlink.com 1.10,2013-01-07 14:15:00,
2013-01-07 09:30:00,31.7,28.0,30.45,WSW,242,0.0,4.0,86,0.00,,,0.00,weatherlink.com 1.10,2013-01-07 14:30:00,
2013-01-07 09:45:00,32.0,28.0,30.45,West,264,0.0,3.0,85,0.00,,,0.00,weatherlink.com 1.10,2013-01-07 14:45:00,
2013-01-07 10:00:00,32.3,28.0,30.46,WSW,256,0.0,3.0,85,0.00,,,0.00,weatherlink.com 1.10,2013-01-07 15:00:00,
2013-01-07 10:15:00,32.9,29.0,30.46,SW,222,1.0,2.0,84,0.00,,,0.00,weatherlink.com 1.10,2013-01-07 15:15:00,
2013-01-07 10:30:00,33.4,29.0,30.46,NW,307,0.0,3.0,82,0.00,,,0.00,weatherlink.com 1.10,2013-01-07 15:30:00,
2013-01-07 10:45:00,33.9,29.0,30.47,South,180,3.0,3.0,81,0.00,,,0.00,weatherlink.com 1.10,2013-01-07 15:45:00,
2013-01-07 11:00:00,34.3,28.0,30.47,South,187,2.0,3.0,79,0.00,,,0.00,weatherlink.com 1.10,2013-01-07 16:00:00,
2013-01-07 11:16:00,34.5,28.0,30.46,SSW,206,2.0,5.0,77,0.00,,,0.00,weatherlink.com 1.10,2013-01-07 16:16:00,
2013-01-07 11:31:00,34.4,27.0,30.45,West,262,5.0,6.0,73,0.00,,,0.00,weatherlink.com 1.10,2013-01-07 16:31:00,
2013-01-07 11:46:00,34.0,26.0,30.44,SSW,210,3.0,8.0,73,0.00,,,0.00,weatherlink.com 1.10,2013-01-07 16:46:00,
2013-01-07 12:01:00,34.2,26.0,30.43,SSW,210,2.0,10.0,71,0.00,,,0.00,weatherlink.com 1.10,2013-01-07 17:01:00,
2013-01-07 12:16:00,34.3,25.0,30.42,SW,227,2.0,7.0,70,0.00,,,0.00,weatherlink.com 1.10,2013-01-07 17:16:00,
2013-01-07 12:31:00,34.6,26.0,30.41,SW,224,6.0,7.0,72,0.00,,,0.00,weatherlink.com 1.10,2013-01-07 17:31:00,
2013-01-07 12:46:00,34.6,26.0,30.41,South,184,5.0,11.0,72,0.00,,,0.00,weatherlink.com 1.10,2013-01-07 17:46:00,
2013-01-07 13:01:00,34.6,26.0,30.40,SW,232,4.0,6.0,71,0.00,,,0.00,weatherlink.com 1.10,2013-01-07 18:01:00,
2013-01-07 13:16:00,34.9,27.0,30.40,SSW,207,1.0,8.0,72,0.00,,,0.00,weatherlink.com 1.10,2013-01-07 18:16:00,
2013-01-07 13:31:00,35.0,26.0,30.39,ESE,116,2.0,7.0,70,0.00,,,0.00,weatherlink.com 1.10,2013-01-07 18:31:00,
2013-01-07 13:46:00,35.2,26.0,30.39,WSW,253,4.0,10.0,70,0.00,,,0.00,weatherlink.com 1.10,2013-01-07 18:46:00,
2013-01-07 14:01:00,35.2,26.0,30.38,West,268,1.0,7.0,70,0.00,,,0.00,weatherlink.com 1.10,2013-01-07 19:01:00,
2013-01-07 14:16:00,35.3,27.0,30.38,SSE,161,1.0,6.0,71,0.00,,,0.00,weatherlink.com 1.10,2013-01-07 19:16:00,
2013-01-07 14:31:00,35.4,27.0,30.37,West,279,0.0,4.0,70,0.00,,,0.00,weatherlink.com 1.10,2013-01-07 19:31:00,
2013-01-07 14:46:00,35.6,27.0,30.37,SSE,155,2.0,5.0,70,0.00,,,0.00,weatherlink.com 1.10,2013-01-07 19:46:00,
2013-01-07 15:01:00,35.2,26.0,30.36,SE,137,0.0,6.0,70,0.00,,,0.00,weatherlink.com 1.10,2013-01-07 20:01:00,
2013-01-07 15:16:00,35.0,26.0,30.35,SSW,192,1.0,4.0,70,0.00,,,0.00,weatherlink.com 1.10,2013-01-07 20:16:00,
2013-01-07 15:31:00,35.0,26.0,30.36,SW,236,4.0,5.0,70,0.00,,,0.00,weatherlink.com 1.10,2013-01-07 20:31:00,
2013-01-07 15:46:00,34.9,27.0,30.35,South,187,1.0,4.0,72,0.00,,,0.00,weatherlink.com 1.10,2013-01-07 20:46:00,
2013-01-07 16:01:00,34.6,26.0,30.35,SSE,163,0.0,6.0,71,0.00,,,0.00,weatherlink.com 1.10,2013-01-07 21:01:00,
2013-01-07 16:16:00,34.3,26.0,30.35,South,183,1.0,7.0,71,0.00,,,0.00,weatherlink.com 1.10,2013-01-07 21:16:00,
2013-01-07 16:31:00,33.9,26.0,30.35,SSW,204,1.0,5.0,72,0.00,,,0.00,weatherlink.com 1.10,2013-01-07 21:31:00,
2013-01-07 16:46:00,33.5,26.0,30.34,SSW,205,2.0,5.0,73,0.00,,,0.00,weatherlink.com 1.10,2013-01-07 21:46:00,
2013-01-07 17:01:00,33.1,25.0,30.33,South,172,3.0,4.0,73,0.00,,,0.00,weatherlink.com 1.10,2013-01-07 22:01:00,
2013-01-07 17:16:00,32.6,25.0,30.34,SW,216,0.0,2.0,74,0.00,,,0.00,weatherlink.com 1.10,2013-01-07 22:16:00,
2013-01-07 17:31:00,32.2,25.0,30.33,South,170,0.0,2.0,76,0.00,,,0.00,weatherlink.com 1.10,2013-01-07 22:31:00,
2013-01-07 17:46:00,31.6,25.0,30.33,South,170,0.0,1.0,77,0.00,,,0.00,weatherlink.com 1.10,2013-01-07 22:46:00,
2013-01-07 18:01:00,31.2,25.0,30.33,South,170,0.0,1.0,78,0.00,,,0.00,weatherlink.com 1.10,2013-01-07 23:01:00,
2013-01-07 18:16:00,30.6,25.0,30.33,South,170,0.0,2.0,78,0.00,,,0.00,weatherlink.com 1.10,2013-01-07 23:16:00,
2013-01-07 18:31:00,30.2,25.0,30.32,SW,225,3.0,3.0,80,0.00,,,0.00,weatherlink.com 1.10,2013-01-07 23:31:00,
2013-01-07 18:46:00,30.1,25.0,30.33,South,181,0.0,4.0,80,0.00,,,0.00,weatherlink.com 1.10,2013-01-07 23:46:00,
2013-01-07 19:01:00,30.1,25.0,30.32,South,179,1.0,4.0,80,0.00,,,0.00,weatherlink.com 1.10,2013-01-08 00:01:00,
2013-01-07 19:16:00,30.0,25.0,30.32,SSE,166,0.0,6.0,80,0.00,,,0.00,weatherlink.com 1.10,2013-01-08 00:16:00,
2013-01-07 19:31:00,29.9,24.0,30.32,SE,146,0.0,2.0,80,0.00,,,0.00,weatherlink.com 1.10,2013-01-08 00:31:00,
2013-01-07 19:46:00,29.8,25.0,30.32,SE,130,1.0,2.0,81,0.00,,,0.00,weatherlink.com 1.10,2013-01-08 00:46:00,
2013-01-07 20:01:00,29.8,24.0,30.31,SSE,154,3.0,4.0,80,0.00,,,0.00,weatherlink.com 1.10,2013-01-08 01:01:00,
2013-01-07 20:16:00,29.6,24.0,30.30,SSE,166,0.0,3.0,81,0.00,,,0.00,weatherlink.com 1.10,2013-01-08 01:16:00,
2013-01-07 20:31:00,29.5,24.0,30.30,South,170,1.0,4.0,81,0.00,,,0.00,weatherlink.com 1.10,2013-01-08 01:31:00,
2013-01-07 20:46:00,29.6,24.0,30.29,SSE,150,2.0,4.0,81,0.00,,,0.00,weatherlink.com 1.10,2013-01-08 01:46:00,
2013-01-07 21:01:00,29.6,24.0,30.29,SSE,158,2.0,5.0,81,0.00,,,0.00,weatherlink.com 1.10,2013-01-08 02:01:00,
2013-01-07 21:16:00,29.5,25.0,30.29,SE,124,4.0,4.0,82,0.00,,,0.00,weatherlink.com 1.10,2013-01-08 02:16:00,
2013-01-07 21:31:00,29.5,25.0,30.28,SSE,162,2.0,4.0,82,0.00,,,0.00,weatherlink.com 1.10,2013-01-08 02:31:00,
2013-01-07 21:46:00,29.4,25.0,30.27,SSE,162,3.0,9.0,83,0.00,,,0.00,weatherlink.com 1.10,2013-01-08 02:46:00,
2013-01-07 22:01:00,29.4,25.0,30.26,SSE,160,0.0,9.0,83,0.00,,,0.00,weatherlink.com 1.10,2013-01-08 03:01:00,
2013-01-07 22:16:00,29.6,25.0,30.26,SE,145,4.0,5.0,82,0.00,,,0.00,weatherlink.com 1.10,2013-01-08 03:16:00,
2013-01-07 22:31:00,29.5,25.0,30.25,SSE,168,3.0,5.0,82,0.00,,,0.00,weatherlink.com 1.10,2013-01-08 03:31:00,
2013-01-07 22:46:00,29.5,25.0,30.25,South,173,2.0,4.0,83,0.00,,,0.00,weatherlink.com 1.10,2013-01-08 03:46:00,
2013-01-07 23:01:00,29.5,25.0,30.25,SE,137,1.0,3.0,83,0.00,,,0.00,weatherlink.com 1.10,2013-01-08 04:01:00,
2013-01-07 23:16:00,29.3,24.0,30.25,SSE,151,1.0,4.0,82,0.00,,,0.00,weatherlink.com 1.10,2013-01-08 04:16:00,
2013-01-07 23:31:00,29.3,25.0,30.25,SSW,197,0.0,5.0,83,0.00,,,0.00,weatherlink.com 1.10,2013-01-08 04:31:00,
2013-01-07 23:46:00,29.3,24.0,30.26,West,263,2.0,2.0,82,0.00,,,0.00,weatherlink.com 1.10,2013-01-08 04:46:00,